Date,TemperatureHighF,TemperatureAvgF,TemperatureLowF,DewpointHighF,DewpointAvgF,DewpointLowF,HumidityHigh,HumidityAvg,HumidityLow,PressureMaxIn,PressureMinIn,WindSpeedMaxMPH,WindSpeedAvgMPH,GustSpeedMaxMPH,PrecipitationSumIn
2013-9-1,73,71,69,72,71,69,99,98,97,29.57,29.54,2,0,4,0.00
2013-9-3,72,64,53,57,55,52,97,72,57,30.08,29.92,11,2,11,0.01
2013-9-4,84,65,48,62,56,48,99,77,43,30.15,30.08,11,2,11,0.00
2013-9-5,84,67,55,67,58,48,99,74,39,30.22,30.11,9,2,11,0.00
2013-9-6,79,62,46,58,49,41,99,70,27,30.27,30.13,8,1,9,0.00
2013-9-7,87,68,48,65,58,47,99,74,45,30.13,29.96,8,2,9,0.00
2013-9-8,88,77,66,72,67,64,96,74,55,30.04,29.95,8,2,8,0.00
2013-9-9,91,76,62,73,67,61,96,74,46,30.07,29.99,11,3,16,0.00
2013-9-10,96,84,75,75,72,69,86,70,47,30.14,30.04,14,4,15,0.00
2013-9-11,91,80,72,76,73,67,95,80,52,30.17,30.02,13,2,17,0.00
2013-9-12,79,73,64,73,69,61,97,89,67,30.03,29.85,10,3,11,0.07
2013-9-13,67,60,50,62,52,47,95,75,55,30.08,29.90,11,4,14,0.00
2013-9-14,72,64,48,48,46,44,96,56,39,30.17,30.11,7,2,8,0.00
2013-9-15,77,60,42,60,51,42,99,77,43,30.16,30.04,10,2,10,0.00
2013-9-16,74,63,54,63,56,50,99,80,47,30.30,30.09,7,2,8,0.08
2013-9-17,77,60,48,56,52,48,99,77,44,30.34,30.20,11,2,11,0.00
2013-9-18,78,63,54,65,58,51,95,84,63,30.21,30.08,8,2,9,0.00
2013-9-19,75,68,62,71,66,61,99,95,84,30.12,30.01,8,2,8,0.00
2013-9-20,87,74,64,73,68,63,99,82,52,30.03,29.82,11,3,14,0.01
2013-9-21,76,66,52,69,62,51,99,86,49,29.86,29.70,11,3,11,0.71
2013-9-22,69,56,47,53,48,45,99,79,44,30.04,29.86,8,2,9,0.00
2013-9-23,68,58,44,54,47,43,97,70,49,30.14,30.03,12,2,12,0.00
2013-9-24,73,62,43,52,49,42,98,64,42,30.11,29.95,8,2,11,0.00
2013-9-25,74,57,45,57,51,44,99,81,49,29.97,29.88,6,1,8,0.00
2013-9-26,84,62,47,60,51,44,99,72,27,30.09,29.93,7,1,15,0.00
2013-9-27,81,62,44,58,52,43,99,72,38,30.19,30.09,8,1,8,0.00
2013-9-28,82,63,47,60,53,46,99,76,41,30.21,30.09,8,2,8,0.00
2013-9-29,78,63,52,64,57,51,99,84,57,30.10,30.00,8,2,8,0.00
2013-9-30,76,66,58,65,60,56,96,84,58,30.05,29.96,8,1,9,0.00